Location: Nied?wied?
(53.3665°N, 14.8184°E)
Time: 23:23:37
(UTC+00:00)

USA 234 - Pass Details

Date: 03 March 2021
Orbit: 1102 x 1105 km, 123.0° (Epoch: 12 April)

Event Time Altitude Azimuth Distance (km) Brightness Sun altitude
Exits shadow 19:39:56 57° 93° (E) 1,281 3.2 -26.5°
Maximum altitude 19:41:11 70° 149° (SSE) 1,169 3.1 -26.7°
Drops below altitude 10° 19:47:43 10° 232° (SW) 2,959 5.8 -27.5°
Sets 19:50:12 0° 235° (SW) 3,915 6.5 -27.9°
